IRIDIUM 147 (43480 NORAD) Tracking and Keplerian Element Data

This shows tracking and keplerian element data for the satellite.

Feedback or suggestion? Click here.




ElementValue
Catalog43480
NameIRIDIUM 147
Epoch Orbit9736
Epoch Day91.86387434
Epoch Year2020
RAAN316.2757
Inclination86.395
Eccentricity0.0001882
Argument of Perigee81.0921
Mean Anonmoly279.0488
Mean Motion14.34217106
Decay Rate7.1E-07
L11 43480U 18047E 20091.86387434 .00000071 00000-0 18348-4 0 9990
L22 43480 86.3950 316.2757 0001882 81.0921 279.0488 14.34217106 97365

Live tracking and technical data element details for IRIDIUM 147 (NORAD 43480). IRIDIUM 147 can be tracked NOW for your location showing map with azimuth and elevation plus other details from your city location.

Track the satellite on the map from your city or location and see movement details for azimuth, elevation, latitude, longitude, range, height, and movement on the map or in text.







IsCatalogInMostPopularTable: catalog: 43480, numindb: 352
Update: records affected: 1



GetName: 43480 IRIDIUM 147

Hit Count: updated at: Fri, 03 Apr 2020 06:54:40 GMT